Theta_e
332 332 333 335 335 337 339 341 341 343 342 341 342 342 339 338 338 337 339 339 337 334 336 334 332 335 337 333 335 337 338 342 340 341 340 347 339 341 343 342 343 344 344 345 343 343 343 343 343 344 342 341 341 339 339 339 340 341 339 339 338 335 335 336 336 336 332 332 335 335 336 334 333 332 334 337 339 339 339 337 336 335 336 335 337
332 332 333 335 335 339 340 339 339 339 340 341 341 341 339 338 339 338 338 338 337 337 335 336 336 336 335 335 338 337 338 337 337 339 341 341 341 341 343 341 342 344 343 344 344 344 341 341 342 342 341 340 340 340 340 339 339 339 339 336 335 334 333 336 335 334 330 329 327 327 331 332 335 334 334 335 338 339 338 338 334 335 335 335 338
324 332 332 333 336 338 338 339 340 340 340 340 341 341 341 340 339 339 341 339 339 338 337 336 340 340 339 338 339 340 341 341 343 339 340 338 339 339 340 345 343 343 344 344 344 344 342 341 340 341 341 340 339 338 339 339 339 339 339 336 333 335 334 336 337 337 331 331 331 326 323 324 328 332 334 334 334 334 336 336 336 334 334 333 336
325 325 330 332 335 336 337 337 338 338 338 339 340 339 340 340 340 339 338 338 339 340 338 340 338 341 342 341 342 340 340 340 342 341 339 338 337 338 342 343 343 343 341 340 341 343 343 342 341 341 340 340 340 338 338 338 339 339 338 337 335 330 331 332 337 336 334 327 320 321 325 325 319 325 328 332 336 334 335 335 333 335 336 335 335
327 330 334 335 335 335 336 336 337 336 337 337 339 339 339 341 342 341 340 340 336 338 340 342 341 340 341 341 338 335 338 339 338 337 339 336 337 341 343 342 342 339 340 340 338 344 344 342 342 342 341 340 340 337 336 337 338 337 338 337 335 332 329 333 333 336 334 336 332 325 318 318 320 322 325 327 332 332 332 332 335 334 336 336 337
324 329 330 329 334 334 336 336 336 336 337 338 339 340 340 341 342 342 341 339 338 338 341 341 340 338 333 334 331 332 333 333 333 334 335 334 335 336 341 340 339 339 339 339 338 343 343 344 343 341 341 340 340 337 336 336 336 336 336 337 336 336 333 330 330 335 338 336 337 335 330 322 322 325 325 317 329 332 331 333 333 334 335 335 334
326 328 331 325 329 336 334 336 335 336 338 340 340 341 340 341 343 336 336 337 337 338 340 339 335 337 338 335 333 333 332 334 337 337 336 337 339 341 338 341 339 339 339 339 340 340 344 344 343 342 340 341 340 339 337 337 335 334 336 336 334 336 335 330 330 332 335 334 334 335 333 333 332 326 321 323 319 326 330 332 328 331 330 331 331
323 323 328 327 327 329 334 335 338 337 339 339 341 341 340 341 340 333 332 332 334 335 338 340 335 340 337 336 334 334 336 334 334 336 336 337 339 337 337 338 338 339 339 338 340 339 338 338 342 342 340 339 338 338 339 337 336 336 337 336 337 337 336 332 331 333 329 330 335 333 332 334 331 331 331 325 322 318 322 327 330 330 330 331 330
324 326 327 326 326 334 332 331 337 340 339 339 339 341 342 339 333 335 333 331 332 333 333 336 338 338 336 333 330 333 335 336 338 336 338 340 338 336 337 337 338 339 338 339 338 338 337 338 338 337 341 340 337 337 337 337 337 336 337 337 337 337 336 336 333 330 331 331 330 332 330 331 331 332 330 330 323 323 321 322 322 327 329 328 329
326 328 330 332 336 337 335 335 335 337 340 340 341 341 335 330 329 332 334 334 336 334 333 333 333 334 332 333 333 334 336 336 335 334 334 338 336 335 336 335 335 337 338 337 338 336 336 337 337 337 337 335 335 338 337 337 337 338 338 338 338 336 335 335 335 334 334 332 331 331 329 328 329 327 329 329 327 326 320 319 323 321 321 324 329
326 324 325 336 338 338 338 336 335 337 339 338 335 328 327 328 329 330 335 334 336 335 333 332 333 334 334 334 335 334 335 334 332 332 332 333 334 334 334 335 335 335 336 338 337 336 337 337 337 336 336 336 334 337 338 337 339 338 339 339 339 336 337 337 334 336 334 333 332 333 329 329 326 326 325 327 325 324 322 321 322 323 322 321 325
327 326 331 335 334 335 337 335 334 335 336 334 326 327 327 330 330 330 333 334 334 333 330 328 329 332 333 334 334 335 334 332 331 330 330 332 332 332 333 333 333 334 336 335 336 337 337 336 336 336 335 336 335 335 336 339 338 338 338 338 338 338 337 334 335 334 335 333 332 332 332 331 332 332 329 325 325 325 323 321 321 323 323 323 324
329 330 332 333 333 334 334 335 335 335 332 327 325 326 328 329 329 330 331 332 331 332 329 329 331 331 333 333 334 334 334 331 330 328 333 332 331 331 330 329 330 330 332 333 335 337 336 336 335 334 334 335 335 333 334 333 338 337 337 338 335 334 335 337 334 336 335 331 332 335 335 332 332 332 335 329 328 330 327 321 322 323 320 320 322
330 331 331 333 332 333 334 334 336 329 325 324 325 327 329 331 331 331 332 332 332 332 330 329 332 333 335 335 336 335 334 333 331 327 330 333 332 330 330 330 329 331 332 332 334 334 333 335 335 335 334 334 334 334 334 334 334 336 338 336 336 337 337 336 336 336 336 337 336 334 333 333 334 335 332 332 330 327 325 323 321 321 321 319 321
326 327 327 330 332 332 332 332 328 326 325 325 328 329 331 330 331 331 332 332 331 331 330 330 332 334 334 335 335 335 334 330 328 328 332 332 332 331 332 332 331 332 331 334 334 333 333 334 333 333 333 334 334 335 334 335 335 332 336 336 336 337 338 335 335 336 333 334 335 334 335 333 335 333 330 330 329 331 327 325 323 319 319 320 318
323 322 329 328 331 332 332 332 330 330 328 329 328 330 330 331 332 332 332 333 332 331 331 331 333 334 334 334 333 334 331 330 329 331 334 334 332 331 332 333 333 331 333 334 333 334 332 332 332 332 333 333 334 333 334 332 334 332 331 337 336 332 337 336 334 335 334 332 334 334 334 332 334 332 332 330 331 331 329 327 327 323 317 314 316
326 328 329 329 331 332 332 332 332 332 332 332 330 329 330 330 331 331 332 333 332 332 332 334 335 334 333 333 333 332 330 329 331 333 334 334 334 332 332 333 334 333 333 334 333 333 333 332 332 332 332 332 334 333 333 333 333 332 331 334 331 333 337 335 335 336 335 337 336 334 332 333 333 333 334 333 332 333 328 329 326 323 320 316 313
325 326 328 328 329 330 331 332 333 332 333 333 331 330 332 331 332 332 332 331 332 332 334 335 334 333 333 333 334 334 332 332 334 333 333 332 332 332 333 332 332 333 332 333 333 333 333 331 331 331 332 333 333 332 331 332 333 330 331 331 331 333 334 337 337 335 335 336 334 333 333 331 332 332 334 335 332 331 326 326 324 323 322 318 316
324 325 327 327 328 329 330 331 331 329 332 333 333 333 334 333 332 332 332 332 332 333 334 335 336 336 334 334 335 334 333 331 331 332 333 331 331 331 332 332 333 333 331 332 333 331 332 330 330 329 330 331 331 331 331 331 331 331 332 330 332 332 330 332 335 335 335 334 333 332 333 333 333 335 335 335 331 328 325 323 323 324 323 323 319
321 323 323 326 329 329 327 328 329 329 330 332 332 332 333 333 334 333 333 333 333 334 334 334 336 335 335 336 335 333 332 331 332 331 331 330 329 329 331 332 332 332 332 332 329 330 329 329 328 328 328 330 330 329 330 330 331 330 329 329 330 330 329 329 333 335 333 333 332 330 332 332 333 333 332 330 328 326 326 321 323 323 322 323 321
322 323 323 324 324 326 326 326 328 332 331 331 333 332 332 333 333 333 332 332 333 334 334 334 335 335 335 333 335 333 332 331 331 330 330 329 330 330 330 331 330 330 331 330 330 330 329 329 329 326 325 328 329 329 330 330 329 327 327 328 328 327 326 328 332 332 333 332 331 329 330 332 331 329 328 327 325 323 323 322 322 320 320 322 321
320 322 323 323 324 325 327 327 329 327 326 327 328 328 334 333 333 332 331 331 331 333 333 335 334 336 333 335 335 334 333 331 330 329 330 329 329 329 331 330 330 331 330 328 329 329 330 329 327 325 325 326 328 328 328 328 326 327 327 327 327 326 326 328 332 331 331 330 332 330 330 331 330 326 326 323 323 323 321 319 319 319 317 318 321
318 319 322 323 323 324 324 325 325 327 326 325 323 325 327 329 331 333 331 331 333 333 334 335 335 333 334 334 334 334 332 331 329 330 329 328 330 330 329 329 329 330 330 329 329 329 329 328 326 326 324 325 327 327 327 327 327 326 324 326 326 327 327 328 331 331 330 330 329 330 329 331 329 326 325 325 324 321 320 319 320 320 319 319 318
319 319 321 322 323 323 323 323 325 326 326 327 327 326 325 327 328 331 331 332 332 332 333 335 333 332 336 336 335 333 332 331 330 330 330 330 329 330 328 328 328 328 326 327 328 328 329 327 325 323 323 324 326 326 325 325 324 324 324 325 325 326 326 327 329 330 330 331 330 330 331 331 328 325 324 322 322 323 322 321 321 322 321 320 322
316 317 319 321 322 321 321 321 322 323 324 325 325 325 326 327 329 329 332 332 333 333 332 334 336 335 333 336 336 332 331 330 330 330 330 329 330 328 328 326 327 325 325 327 327 329 328 326 324 322 321 323 325 325 323 323 324 325 324 324 325 324 325 325 327 328 330 327 328 327 328 329 326 324 324 322 323 322 321 322 321 320 321 322 322
313 313 313 316 319 320 320 320 321 321 321 322 324 324 324 327 327 331 332 332 332 331 330 332 335 332 334 334 333 333 330 330 329 330 330 330 329 328 326 328 324 323 325 327 326 328 326 323 322 321 320 321 322 322 322 323 323 325 325 325 325 326 325 324 325 326 327 327 326 325 325 326 326 325 324 324 325 324 323 323 323 322 321 322 323
310 310 311 313 312 313 316 318 319 320 322 322 323 323 323 324 328 329 332 330 330 331 330 333 333 331 333 334 333 333 329 329 329 329 330 329 328 327 325 324 323 324 324 326 326 325 325 322 321 322 320 320 322 323 323 324 324 324 324 324 325 325 325 326 325 326 326 326 326 326 327 328 328 328 326 325 326 327 326 325 325 323 322 323 320
309 308 309 309 310 311 311 312 314 318 320 322 323 325 324 324 326 328 330 330 332 331 331 330 329 326 324 325 323 329 329 330 329 329 329 329 328 326 325 324 324 323 323 324 324 324 324 322 322 321 321 322 322 323 323 323 323 324 324 324 324 325 324 324 325 325 326 326 326 326 326 326 325 327 327 327 328 325 325 324 323 324 323 322 322
304 304 305 307 307 308 310 311 311 316 318 320 321 322 324 325 324 326 328 329 331 330 327 325 326 326 326 323 325 326 327 328 327 329 328 328 328 326 326 324 323 323 324 324 325 325 323 323 321 322 321 322 323 324 325 326 324 323 324 324 324 322 323 323 323 323 324 324 324 325 325 327 324 320 310 313 313 316 328 323 325 324 323 321 321
302 303 304 304 304 305 307 308 309 310 313 316 316 319 322 323 323 324 325 326 328 327 326 325 326 326 327 327 325 325 324 324 325 325 326 327 327 327 325 323 323 323 324 324 324 324 324 323 323 323 323 324 325 327 306 298 302 320 324 322 324 324 323 323 323 323 323 323 323 325 327 319 316 315 309 303 301 302 306 320 324 327 324 323 322
299 301 302 302 302 303 304 305 306 308 310 312 313 316 318 319 321 323 324 325 325 325 324 322 322 324 325 325 325 325 324 325 327 325 325 325 326 326 324 323 324 324 324 324 323 322 323 323 322 323 324 326 327 315 295 294 296 296 315 325 324 323 323 323 323 323 322 322 323 324 326 325 324 320 323 297 299 301 300 299 299 302 309 324 323
297 298 299 300 300 301 302 303 304 306 307 309 311 312 315 317 319 321 323 324 323 324 322 321 322 323 323 322 322 323 322 322 320 321 325 325 325 324 323 322 323 322 322 324 324 324 324 324 323 323 324 325 317 297 293 295 295 294 298 315 325 324 323 323 323 322 322 321 321 322 324 324 323 324 323 323 315 301 301 302 301 301 300 297 300
296 296 297 298 299 300 301 302 304 305 305 307 309 311 312 314 315 318 320 322 322 323 322 322 321 322 322 323 322 321 320 321 320 321 322 322 323 325 322 321 322 324 324 324 324 325 325 325 324 326 323 318 313 295 294 294 295 294 294 304 322 325 323 322 322 322 322 323 323 323 323 326 322 324 323 326 324 323 303 296 298 298 298 298 297
295 295 296 297 299 300 300 301 303 304 306 308 309 311 311 312 312 313 313 314 317 320 322 322 321 321 321 322 322 321 320 320 320 320 321 322 322 322 323 324 324 325 324 324 324 324 324 324 326 323 316 310 306 296 293 293 293 293 293 297 322 325 325 322 320 321 323 323 324 326 325 326 327 326 324 327 325 326 325 323 321 322 323 318 300
294 295 296 297 298 298 300 302 303 305 307 308 307 307 308 309 310 311 311 311 312 313 313 315 317 320 321 321 320 319 319 320 322 322 320 320 321 323 324 325 324 324 322 321 321 322 323 324 323 317 312 307 302 292 292 292 293 293 292 297 322 326 325 324 324 325 326 327 328 328 328 327 324 321 327 324 328 327 328 327 327 326 326 325 326
294 294 295 296 297 298 299 301 302 303 304 307 307 307 305 306 309 309 310 309 310 309 309 311 313 314 318 321 319 319 319 320 321 321 320 320 321 322 322 323 321 321 322 324 324 324 323 323 321 317 313 309 303 291 291 292 292 292 293 318 326 326 324 323 322 325 327 329 328 328 329 326 328 325 312 298 309 327 326 325 325 326 324 325 321
295 296 296 297 298 298 299 300 301 301 303 304 308 308 305 306 306 305 306 308 309 309 309 309 309 311 313 315 315 318 320 319 319 319 318 319 321 321 323 325 324 323 322 321 320 319 321 322 320 317 313 309 305 294 291 291 292 291 302 324 328 325 324 325 326 325 327 325 324 322 324 327 326 322 297 294 293 302 324 322 322 324 324 322 323
297 297 297 297 298 299 299 300 299 300 302 303 305 306 304 303 304 304 303 304 305 306 308 308 308 311 312 310 311 312 313 315 315 315 315 315 317 320 321 323 322 321 320 319 319 316 314 313 313 311 309 306 303 295 291 291 292 291 296 319 325 323 323 323 324 326 327 325 317 312 320 323 323 312 292 293 291 305 321 322 322 322 320 319 321
296 296 296 296 297 298 297 299 299 299 300 302 302 303 303 302 302 303 303 303 302 303 305 306 307 308 309 310 310 310 310 311 311 312 314 312 313 314 315 315 314 314 316 317 315 314 312 312 313 311 308 306 303 298 291 291 291 291 299 315 322 321 321 322 322 324 325 324 319 309 300 303 306 298 291 291 291 300 317 321 322 322 319 319 321
296 297 297 297 298 297 297 297 297 298 301 301 300 301 301 301 301 302 302 302 303 304 305 307 308 308 309 309 310 310 310 310 310 310 311 311 311 311 311 311 312 311 312 313 313 312 311 311 311 311 312 310 305 301 295 290 292 293 292 308 321 319 320 320 320 319 317 318 321 315 304 291 291 291 292 290 292 290 305 315 320 321 319 321 320
294 295 296 296 296 296 296 297 297 299 300 301 300 299 299 300 300 301 301 302 303 304 305 307 308 308 309 309 309 310 310 310 310 310 311 313 313 312 311 311 311 310 310 312 311 310 310 309 308 307 307 308 308 305 298 291 292 293 293 301 313 311 313 316 317 316 317 317 317 317 309 293 290 290 290 289 290 290 291 304 313 319 313 304 303
295 295 295 295 295 295 296 297 298 298 299 300 300 299 299 298 298 298 300 303 304 305 305 305 306 306 307 308 308 309 310 309 310 310 310 311 312 314 315 314 312 312 310 309 308 308 308 307 308 307 304 303 303 302 304 294 291 292 292 294 309 308 303 309 313 315 316 316 315 314 306 295 290 291 290 290 289 290 289 301 313 296 293 293 307
295 295 295 295 294 294 295 296 297 298 298 298 298 298 298 298 297 298 300 302 303 304 304 305 304 304 304 305 306 307 307 308 309 309 309 309 310 311 312 313 312 312 312 311 311 311 311 309 308 308 307 305 304 302 297 300 291 292 291 291 290 298 292 306 309 310 311 311 311 310 306 295 290 290 290 290 290 289 291 304 293 292 292 291 299
294 295 295 296 296 295 295 296 298 299 299 298 298 297 297 296 297 299 300 301 301 302 303 303 304 304 304 304 304 305 306 306 307 308 308 308 308 308 308 309 310 310 309 309 309 310 309 309 308 307 309 308 306 304 298 296 297 290 291 291 292 290 290 301 303 309 308 309 307 306 301 291 290 290 290 291 291 290 298 294 290 291 291 294 307
294 294 295 295 295 295 295 295 298 299 300 301 300 298 297 295 297 299 299 299 299 299 300 300 301 302 303 304 304 304 305 305 305 306 306 305 306 307 306 307 307 307 307 307 306 308 308 308 308 308 308 308 310 308 306 300 295 292 292 291 289 289 293 288 308 306 305 307 300 291 290 290 291 291 290 290 292 292 289 288 288 289 294 307 310
294 294 294 295 296 296 295 296 297 299 299 299 299 298 298 299 299 299 299 300 300 299 298 298 299 300 301 302 302 302 303 304 305 304 304 304 305 304 304 305 305 305 305 305 304 304 304 305 305 306 305 306 306 307 308 307 300 298 297 291 292 291 294 293 296 305 294 287 286 288 287 287 289 293 302 309 307 309 294 289 288 291 307 309 310
294 295 295 295 296 295 295 295 295 297 297 298 298 299 299 300 300 300 300 300 300 300 299 299 299 300 300 299 299 300 300 300 301 302 303 303 303 303 303 302 303 303 304 303 303 303 303 303 303 304 304 304 306 305 303 302 301 300 301 302 310 309 295 293 302 308 302 302 308 299 304 299 298 294 293 293 296 299 300 300 303 304 309 311 311
296 296 296 296 296 295 295 295 295 296 297 298 298 299 300 301 301 302 302 302 301 301 301 301 301 301 300 300 299 293 297 299 299 299 298 298 299 301 301 298 297 298 300 302 303 302 301 302 302 303 303 302 303 300 299 298 299 298 299 300 301 301 302 301 301 299 299 301 303 298 300 305 308 308 307 308 308 309 306 304 307 307 307 307 307
296 296 296 296 296 296 296 296 296 298 298 298 298 299 300 301 301 301 302 301 301 299 300 300 301 301 300 301 301 301 300 301 300 299 297 296 295 297 299 298 296 295 294 295 298 299 298 300 302 301 301 302 301 297 296 289 291 287 289 294 297 297 297 299 295 288 292 300 302 301 301 302 302 299 299 303 303 303 302 304 305 307 307 306 305
296 297 297 296 296 297 296 296 297 298 298 298 299 300 301 301 301 301 301 300 300 300 300 299 299 299 300 300 301 300 300 300 300 300 299 294 288 289 293 296 295 290 287 287 289 293 293 296 298 299 298 296 295 295 287 287 287 287 286 286 287 287 287 289 289 287 288 295 297 299 299 300 300 299 299 298 299 298 298 299 299 298 302 304 305
297 297 297 297 297 297 297 297 297 298 298 298 299 300 300 301 301 301 301 301 300 299 298 299 298 297 296 299 299 299 300 300 300 300 301 297 296 293 288 288 289 289 288 288 287 287 288 287 292 297 295 286 288 287 287 287 287 287 287 287 288 288 288 288 288 290 294 296 298 298 298 299 299 300 298 299 299 298 298 299 300 300 302 302 300
Wind_Speed
9 12 13 14 11 10 9 10 9 9 10 11 12 13 15 14 11 11 10 9 9 8 8 7 8 7 6 10 8 8 6 6 5 4 4 1 2 3 4 6 6 6 6 7 8 7 5 6 5 4 4 4 4 3 3 4 5 5 4 3 5 4 4 4 4 2 3 3 2 2 3 5 7 5 3 3 4 3 5 6 6 5 2 3 4
6 8 11 12 10 12 10 9 10 11 11 13 13 14 14 13 14 12 9 10 10 8 9 9 8 8 8 8 8 7 6 5 6 4 2 3 4 5 6 5 5 6 6 5 5 5 5 5 5 5 4 4 3 4 5 4 5 5 4 4 4 5 4 3 3 2 2 3 3 3 2 3 3 4 4 3 1 2 2 3 5 1 3 2 3
11 10 11 12 12 14 12 10 10 11 12 12 12 13 13 14 13 12 11 12 11 9 7 8 8 8 9 8 7 7 6 3 3 3 1 1 4 4 8 7 7 6 6 6 5 5 5 5 5 5 5 5 3 4 4 6 5 5 5 4 5 4 3 3 3 5 2 2 2 2 3 4 2 3 4 6 4 3 1 3 5 5 5 6 4
20 18 13 13 15 14 13 11 11 10 10 11 11 12 11 12 13 15 14 13 11 9 10 9 8 8 6 5 3 3 4 5 4 5 4 2 7 11 6 6 7 6 6 6 5 5 5 5 4 5 5 6 5 4 6 5 5 5 5 4 5 5 5 5 3 5 2 2 2 3 0 2 5 4 5 4 3 3 3 4 6 3 4 8 5
15 17 13 11 14 16 13 12 11 10 10 10 10 10 9 12 12 13 11 11 10 10 12 9 8 6 4 4 7 6 5 3 4 5 4 3 6 7 6 7 6 5 5 6 6 5 6 5 5 5 5 5 6 7 6 5 5 6 5 4 5 4 5 2 6 5 4 3 3 3 1 2 1 5 7 4 4 4 5 5 3 5 4 5 4
12 13 15 13 15 14 13 12 10 9 10 9 10 10 10 10 10 9 5 5 5 7 9 9 7 8 8 7 6 6 6 7 7 6 5 4 5 8 7 6 6 5 4 5 6 5 6 5 6 7 6 5 4 5 6 8 8 6 6 5 5 3 1 6 4 4 2 4 1 3 3 3 3 5 4 4 1 4 7 4 6 4 4 3 4
11 11 11 9 11 11 12 9 10 11 11 11 10 10 11 8 8 8 4 6 7 6 10 7 7 8 8 9 8 7 6 6 4 3 2 3 8 6 5 5 5 5 4 5 5 5 4 5 6 6 6 6 5 5 5 5 5 5 6 5 4 4 1 1 5 5 3 3 5 1 4 1 2 5 4 7 5 2 3 2 6 5 5 4 4
11 10 9 13 11 11 12 11 12 15 14 12 9 9 9 8 7 9 8 6 4 4 4 4 6 6 6 3 3 3 1 4 3 3 4 6 5 5 5 5 5 5 4 5 5 6 7 6 5 4 5 6 6 6 5 5 4 2 3 3 1 2 2 1 2 4 4 4 3 2 3 4 3 5 0 1 2 6 5 4 5 6 5 4 5
13 11 12 18 21 19 14 13 13 12 10 9 9 8 7 5 9 7 7 11 8 6 5 6 3 4 4 5 5 4 3 3 3 3 4 3 5 5 5 5 5 5 5 4 5 5 5 5 6 6 5 4 6 5 5 6 6 6 5 3 4 3 1 1 2 2 5 2 5 4 5 3 6 3 2 2 4 5 5 6 6 5 5 4 4
12 13 16 18 19 15 14 11 5 3 9 9 8 6 6 9 9 5 9 9 9 8 5 4 3 2 5 7 9 7 5 4 2 1 2 3 4 6 5 5 5 5 5 5 4 5 4 4 5 5 5 6 5 4 6 6 6 6 6 5 4 4 2 4 3 2 3 1 3 3 3 3 3 6 7 5 4 1 4 7 6 7 6 4 4
8 10 12 13 13 11 11 11 9 8 4 5 8 12 9 8 10 12 11 9 9 10 9 5 5 10 9 8 10 9 8 6 4 2 3 4 7 7 7 6 6 5 5 5 4 4 4 4 4 4 3 3 4 4 4 6 5 6 5 6 5 5 4 3 3 2 0 1 4 4 3 1 2 4 3 3 5 4 5 6 6 6 6 7 4
13 14 14 12 11 9 11 13 12 11 9 8 11 9 8 10 10 10 11 9 11 11 13 13 8 6 8 9 8 8 8 5 5 5 6 8 8 7 6 6 6 6 5 5 4 4 4 4 3 4 4 3 3 4 4 4 5 5 5 5 4 4 3 3 3 3 4 3 3 3 2 3 0 1 3 3 3 3 4 6 6 7 7 6 6
6 8 9 10 10 10 10 11 11 10 8 12 10 8 9 9 12 13 14 12 12 9 10 11 12 11 9 8 9 8 7 6 3 2 5 7 6 6 6 6 5 5 4 5 5 5 4 4 4 4 4 3 3 3 3 3 4 5 5 5 6 7 6 5 4 3 3 4 3 4 1 1 2 3 1 5 6 2 3 6 6 7 6 6 6
4 6 8 8 8 7 11 10 9 10 10 8 6 7 8 10 14 15 15 15 13 10 10 10 10 10 10 9 9 8 6 5 3 4 11 7 6 6 6 6 5 6 5 5 6 5 5 4 3 2 2 3 3 3 3 3 4 4 5 5 5 4 5 7 4 5 4 2 1 2 2 1 1 1 1 1 3 4 2 3 6 7 7 7 7
3 5 7 6 6 9 7 8 9 10 12 12 9 10 9 11 11 13 12 12 13 12 10 12 11 13 11 10 11 9 6 7 3 10 9 7 7 7 6 6 6 6 6 5 7 6 5 4 3 3 2 2 2 3 3 3 3 3 1 4 3 4 4 6 6 6 5 5 3 3 2 1 2 1 2 6 3 1 5 5 6 8 6 6 6
6 8 3 4 6 6 6 7 11 14 14 12 12 9 9 11 12 13 12 12 13 13 12 12 13 12 14 13 11 7 6 7 9 11 6 6 7 6 6 6 5 6 6 7 7 6 6 6 5 3 2 2 3 3 3 4 3 2 4 3 4 2 4 5 7 9 7 9 6 3 3 3 3 1 3 2 2 0 4 4 3 5 7 8 6
1 1 4 4 5 6 6 7 9 13 12 13 12 12 11 12 13 13 13 12 12 13 14 12 13 13 14 12 10 9 7 9 9 8 7 6 6 6 6 5 6 5 6 7 6 6 6 6 5 4 3 2 2 2 2 3 3 2 3 4 3 3 4 4 4 4 4 6 5 5 3 2 3 0 3 2 2 2 3 4 3 4 5 6 7
3 1 1 1 2 4 4 5 7 8 9 12 13 11 10 11 13 13 14 13 12 14 14 14 14 12 12 13 13 11 10 10 8 7 7 7 7 6 6 5 6 5 6 6 6 6 6 5 5 4 3 3 3 3 3 4 3 3 3 3 3 4 4 4 4 4 5 5 6 5 3 2 2 5 3 4 4 4 5 4 4 4 4 5 5
5 3 2 1 1 4 4 3 4 6 7 9 11 10 11 11 12 13 14 14 15 13 13 12 12 9 9 11 12 12 11 10 9 9 8 8 8 7 7 6 7 6 6 6 6 7 6 5 5 4 4 4 3 3 3 4 4 4 4 4 4 3 3 3 3 4 5 4 5 6 5 4 4 6 6 6 6 5 4 4 3 3 3 5 6
5 5 5 5 5 4 3 5 5 4 4 9 10 9 12 11 12 13 13 14 15 14 14 15 12 11 12 11 10 12 12 11 10 10 8 9 9 9 7 7 7 7 6 7 7 7 7 6 5 5 5 5 4 4 3 5 4 4 5 4 3 3 3 3 4 4 4 5 6 8 6 7 6 5 6 6 5 4 3 5 5 5 5 6 7
7 7 8 7 3 3 5 4 5 1 3 4 3 6 10 10 12 13 15 17 16 15 15 13 10 11 13 11 10 13 12 10 11 10 9 9 7 8 7 6 7 6 7 7 7 7 7 6 6 6 6 5 5 4 4 5 4 4 4 4 4 3 3 5 4 5 5 6 7 7 5 3 5 6 7 6 5 4 4 4 5 5 5 5 9
9 9 8 8 9 7 6 6 4 3 1 3 1 8 5 6 9 12 14 15 16 16 14 13 11 8 12 12 14 12 11 11 11 10 9 9 8 9 7 7 7 6 7 7 7 6 6 6 6 6 6 6 6 5 5 5 5 5 4 4 4 5 3 4 5 6 7 6 6 7 9 7 6 7 8 8 7 5 5 6 5 5 5 5 3
9 8 8 8 7 6 4 3 3 2 1 4 3 3 7 8 7 10 13 15 15 15 14 12 12 10 11 12 12 12 12 12 11 9 10 10 9 8 8 7 6 6 6 6 6 7 7 6 6 5 6 6 7 6 4 5 5 5 5 4 4 6 4 5 5 6 7 6 7 7 7 7 6 8 7 6 6 6 5 5 5 4 5 2 2
12 11 8 7 6 5 6 5 4 5 5 3 2 2 1 5 4 6 12 14 15 13 13 13 12 10 10 12 11 12 13 12 11 9 10 10 9 7 8 7 6 6 6 5 6 7 7 7 6 6 6 6 7 6 6 6 6 6 5 5 5 6 6 5 5 5 6 6 6 7 7 7 8 7 6 6 5 4 3 5 4 5 3 2 2
9 10 10 6 7 8 8 7 6 5 5 6 3 2 2 6 5 9 8 13 12 12 13 11 12 14 13 12 12 14 12 13 12 10 11 10 10 9 6 6 6 6 7 5 6 7 7 7 6 6 7 6 6 7 7 6 6 5 6 5 5 5 5 6 6 6 6 6 7 7 8 8 7 6 5 5 4 4 3 5 5 5 5 5 3
10 11 12 12 9 9 8 8 7 6 6 6 5 5 8 4 6 6 7 9 11 10 12 10 10 11 10 12 12 12 13 12 12 11 11 10 10 9 9 5 7 7 6 6 7 6 6 7 7 6 7 7 7 7 6 6 6 5 5 5 4 5 5 6 6 7 7 5 6 7 7 7 6 6 5 3 4 5 3 4 4 3 4 6 4
10 10 9 9 11 13 13 11 7 4 5 5 4 3 3 7 1 4 4 7 8 9 10 8 6 7 5 7 8 12 11 11 11 11 10 10 9 9 9 8 7 7 7 6 6 6 5 6 6 6 6 6 7 6 7 6 6 5 6 5 5 5 5 4 4 6 7 7 7 6 5 5 4 4 5 5 4 3 2 2 1 1 4 4 5
8 10 10 10 10 11 12 11 10 9 8 4 3 3 3 5 5 3 3 4 4 7 8 6 8 7 6 9 10 9 5 10 9 10 10 9 9 8 8 7 7 7 7 7 6 6 6 6 6 5 5 5 6 6 6 6 6 6 6 5 6 5 5 5 4 4 4 4 5 6 6 7 5 5 2 4 4 3 4 3 2 3 3 3 3
10 10 10 11 11 11 11 12 11 10 9 9 7 3 3 3 4 4 2 5 5 6 10 8 6 10 10 8 4 6 7 2 9 8 8 9 9 8 7 7 7 7 6 6 6 6 5 6 6 5 6 5 5 5 3 2 3 7 5 5 5 5 6 5 5 5 4 4 4 3 3 6 7 6 8 8 7 6 3 2 3 3 2 2 3
10 10 10 11 11 11 11 12 13 13 11 10 9 8 4 3 4 5 6 7 7 9 11 10 10 11 11 10 8 5 6 6 1 8 9 8 8 8 8 7 7 6 6 6 6 6 4 6 6 5 6 5 4 6 7 11 10 6 1 5 4 4 5 5 5 5 4 4 4 4 6 8 8 8 8 9 9 9 7 5 4 3 2 2 3
10 10 10 10 11 12 12 12 12 12 11 8 9 8 8 10 9 8 8 7 8 6 11 12 12 12 11 10 9 8 7 7 3 8 8 9 7 7 8 8 7 6 6 4 5 6 5 4 6 6 5 4 7 5 11 11 13 11 8 3 5 4 4 4 4 4 4 4 3 4 5 5 5 5 3 5 5 6 5 5 6 5 4 2 2
10 10 10 11 11 12 12 12 11 10 10 9 8 8 8 10 9 9 8 9 9 9 11 11 10 10 10 9 9 9 8 6 10 10 8 6 6 8 8 8 8 8 6 5 4 4 4 3 4 6 5 8 6 11 12 12 11 13 10 7 6 4 3 4 4 4 5 4 5 3 4 4 4 4 4 6 5 4 3 3 2 3 3 2 1
10 10 11 11 10 10 10 11 11 9 9 10 8 9 10 10 11 10 10 10 9 9 9 10 10 11 8 7 9 9 7 6 8 8 8 8 8 7 7 7 8 7 6 6 6 5 4 4 4 8 9 8 6 11 12 12 11 11 13 9 6 5 5 4 4 5 5 5 4 5 5 5 3 6 3 5 6 6 3 2 1 2 5 5 5
11 11 11 11 10 9 9 10 10 9 9 8 7 8 9 10 11 11 11 11 10 10 8 8 9 9 8 8 8 8 8 7 8 8 6 7 7 7 6 6 6 6 6 6 6 5 5 4 5 7 7 7 7 10 11 11 10 9 9 8 5 8 5 5 6 6 5 5 6 4 6 4 2 2 3 5 5 6 6 4 5 6 6 7 7
11 12 11 11 10 10 10 10 9 9 9 8 9 10 10 11 11 12 10 10 10 11 12 10 8 6 8 9 9 9 10 9 8 7 7 5 4 4 5 6 6 6 5 4 5 4 4 4 7 6 6 6 5 10 11 12 11 10 9 5 4 5 5 4 6 5 4 4 4 5 5 4 9 3 7 9 6 6 4 6 4 5 5 8 2
10 11 10 11 11 11 12 11 10 9 9 7 7 8 9 10 11 12 10 11 11 11 11 10 10 9 9 7 7 9 10 9 9 8 7 6 4 4 5 6 5 6 5 4 3 4 4 5 7 7 5 5 6 12 11 11 10 11 10 3 3 5 5 6 7 7 5 6 6 7 6 6 3 8 2 6 4 3 5 6 6 6 4 3 5
9 9 9 9 10 10 11 11 11 11 11 9 5 6 7 8 9 11 13 11 10 10 10 9 9 10 9 9 8 7 7 8 8 9 9 6 4 4 4 5 6 5 5 4 5 5 5 6 7 6 7 5 5 9 10 10 10 12 8 3 4 5 5 5 6 6 2 5 9 12 10 8 8 4 8 9 10 7 6 8 8 7 3 4 5
9 10 10 11 10 10 11 10 12 13 14 11 8 8 9 11 10 11 13 13 13 11 10 8 8 9 7 9 9 10 11 10 9 9 8 6 6 5 4 2 3 5 6 6 5 5 7 8 7 7 7 6 5 7 10 9 10 11 8 5 4 4 6 5 4 5 3 5 6 10 9 7 7 5 8 11 12 9 6 7 7 6 4 7 6
10 11 11 12 11 11 12 14 14 15 13 12 13 11 11 12 12 13 14 14 13 12 11 11 10 10 9 8 9 10 9 9 9 8 6 7 6 5 6 7 7 7 5 6 6 6 7 7 5 6 8 7 6 6 10 9 9 10 9 5 5 4 4 5 4 4 3 5 6 8 12 11 8 6 10 9 10 8 7 8 8 7 7 8 7
11 11 10 10 11 13 15 16 16 15 12 12 12 12 12 12 12 12 13 13 12 11 11 11 11 10 10 10 10 10 10 10 11 8 7 8 6 6 7 7 7 7 6 5 5 7 7 6 5 5 5 6 7 6 8 9 10 11 10 5 4 5 4 4 4 5 4 4 6 6 7 8 9 8 8 8 9 8 6 8 8 8 9 3 3
12 11 11 10 11 11 12 13 12 13 13 11 10 10 11 12 11 12 14 12 10 10 10 11 11 11 11 11 10 11 11 10 9 8 7 6 6 7 7 7 7 7 6 4 5 5 6 6 6 6 7 7 6 7 8 11 12 13 15 12 7 7 7 5 5 4 4 4 2 6 5 6 8 8 7 6 5 6 5 6 7 7 6 5 9
9 10 10 9 10 11 12 12 12 12 12 11 10 10 10 11 11 13 12 10 9 10 10 10 11 11 11 11 11 10 10 9 9 7 7 7 5 4 5 7 6 6 7 6 6 5 5 5 4 5 6 7 7 9 7 10 12 13 14 14 8 6 5 5 6 5 6 5 5 5 5 5 9 9 7 7 6 6 6 4 6 10 12 12 9
8 8 8 7 8 9 10 10 9 10 10 10 10 10 10 11 13 12 10 10 10 10 10 10 11 11 11 11 10 11 9 7 7 8 7 6 5 5 5 5 5 4 4 4 4 4 5 5 5 5 5 6 6 6 8 8 9 11 10 9 7 6 10 6 6 5 4 4 5 6 7 11 10 9 8 7 6 6 6 4 7 9 9 11 9
7 7 6 7 8 8 9 9 7 6 7 8 10 10 10 11 12 9 9 9 10 10 10 10 10 10 9 9 9 9 8 7 8 7 7 7 6 4 4 4 3 2 4 3 4 3 3 4 4 5 5 5 6 7 6 8 7 7 7 5 5 4 4 5 5 4 5 5 6 5 4 7 8 8 9 8 8 5 5 6 5 6 7 6 5
7 6 6 7 8 9 8 8 7 7 6 4 4 6 8 10 8 7 8 8 9 9 9 10 10 9 9 8 9 8 8 7 7 7 6 6 6 5 4 3 2 3 2 2 1 1 1 2 3 3 4 4 5 6 6 5 6 6 5 5 3 1 3 3 4 1 2 3 2 3 6 7 8 8 10 11 9 10 10 7 6 4 5 4 4
6 6 6 6 7 8 8 7 6 5 5 5 6 6 7 6 5 5 5 6 7 7 7 8 8 8 9 8 8 8 9 8 7 7 7 6 6 5 5 4 4 3 3 2 3 2 2 1 2 2 2 2 2 2 6 6 4 4 3 4 4 5 5 7 6 6 7 5 3 6 8 9 10 9 7 5 5 2 7 7 6 5 5 5 5
5 5 6 5 6 7 8 8 8 8 8 7 8 7 7 6 7 7 7 7 7 7 7 7 7 7 8 8 8 6 7 7 8 7 7 7 7 6 5 6 6 5 4 3 3 3 3 3 2 3 2 1 0 6 8 7 8 8 7 5 3 3 7 8 5 2 4 5 5 6 7 9 8 8 9 10 9 5 4 5 5 6 5 5 5
5 5 5 6 6 6 7 7 6 5 5 5 5 7 8 8 7 7 7 8 9 9 9 9 9 8 7 7 7 5 6 7 7 8 8 7 7 7 7 7 7 7 7 6 5 4 4 4 3 3 2 1 3 9 8 8 7 7 7 6 6 6 7 7 7 7 7 8 8 9 11 10 8 8 5 5 5 5 5 6 6 6 7 7 7
4 4 4 5 5 6 6 6 6 5 5 5 6 6 7 8 8 8 8 8 8 9 9 9 8 7 7 7 7 7 7 6 6 8 8 8 7 7 6 7 8 6 6 6 6 6 6 6 6 5 5 4 6 8 6 5 4 5 3 5 6 6 6 6 5 5 7 7 7 6 5 5 4 2 3 4 5 6 5 7 8 8 6 7 9
4 5 5 5 5 5 6 7 6 6 6 6 7 7 8 8 8 8 8 8 8 7 8 8 8 7 7 6 6 6 6 6 5 5 7 7 8 9 8 6 5 7 7 8 7 5 5 6 6 6 7 6 5 4 5 6 6 4 4 4 6 7 7 7 10 11 6 4 4 3 2 1 3 3 3 4 4 4 4 4 4 7 6 7 7
4 4 4 4 4 4 5 5 5 6 6 6 7 8 8 9 9 9 9 8 7 7 7 7 7 7 7 5 6 5 5 5 5 5 4 5 6 7 9 9 8 5 6 7 7 8 9 9 6 5 7 12 10 9 11 10 10 10 10 10 9 9 9 9 8 5 2 3 5 3 2 2 3 5 4 4 4 5 5 5 5 5 7 8 6
Wind_Direction
199 208 199 198 180 168 174 172 171 166 168 173 175 169 152 164 167 169 174 170 161 152 159 156 170 195 205 204 201 183 174 166 184 176 215 37 176 251 235 207 190 189 178 163 171 202 152 160 173 178 157 178 154 195 169 152 166 172 167 180 178 171 192 191 168 160 138 135 90 74 62 29 62 113 161 139 145 169 147 186 130 154 211 214 162
217 212 200 189 181 176 176 177 180 174 174 181 181 178 162 170 167 160 173 171 177 176 163 168 181 189 187 206 197 172 162 167 190 150 234 161 225 210 218 240 206 177 183 180 174 172 176 158 171 171 161 158 170 161 159 159 162 182 180 174 182 186 171 180 163 144 120 182 163 141 103 83 112 140 129 145 112 109 126 85 98 170 162 59 93
170 243 201 188 188 180 183 184 181 184 177 181 183 183 179 169 168 160 174 173 181 174 172 184 187 200 199 193 207 158 172 123 117 93 325 294 244 233 240 204 204 177 188 179 177 171 179 160 177 159 177 126 173 158 171 163 177 181 188 181 182 183 163 166 134 68 115 174 83 86 159 149 137 147 121 137 146 148 127 118 118 135 178 154 106
163 201 198 200 190 184 187 187 182 183 184 188 184 191 185 183 173 173 174 181 171 175 194 189 196 196 179 174 185 106 127 129 121 125 183 182 198 232 179 218 184 184 185 188 179 167 163 163 169 166 179 156 159 169 169 177 180 183 184 197 183 170 186 150 92 121 129 131 169 246 187 268 155 160 154 135 111 141 133 119 122 142 104 88 118
186 178 192 202 195 187 188 186 184 187 193 189 196 199 195 192 183 177 174 169 176 192 189 189 175 168 153 140 78 49 102 122 128 173 188 186 220 234 179 197 184 182 188 185 165 165 172 166 175 167 169 169 170 172 177 183 190 192 179 182 190 188 163 145 160 146 164 162 227 132 347 245 262 143 148 131 159 165 159 114 69 77 66 65 74
189 172 175 206 206 187 184 186 186 192 198 197 200 205 202 203 194 171 153 153 141 176 185 180 169 177 190 182 158 176 167 176 178 179 181 149 229 226 188 184 176 179 174 187 155 166 154 176 168 167 170 166 186 183 171 167 200 183 174 188 191 203 299 172 178 170 179 178 284 259 149 285 167 154 164 141 111 67 51 72 88 84 85 93 91
171 158 180 146 259 187 173 176 192 196 198 197 199 206 205 198 186 135 196 152 170 188 179 190 175 197 176 186 166 184 184 170 162 155 142 169 215 192 177 175 176 164 173 168 150 158 154 172 168 174 166 176 174 182 179 177 175 193 168 195 186 186 164 253 184 171 172 201 209 147 257 211 153 189 182 146 136 88 90 109 114 134 127 128 114
174 168 175 161 204 221 175 184 202 202 196 192 188 191 199 197 116 79 68 38 29 182 214 200 192 181 171 170 43 58 252 138 176 177 169 201 211 200 165 173 170 156 171 158 157 158 167 166 168 180 178 179 175 179 173 170 171 117 152 171 162 124 122 175 195 183 201 176 210 186 271 133 214 215 95 151 127 141 136 127 110 100 91 71 73
166 155 180 186 194 199 176 194 202 197 194 193 190 180 181 138 109 122 154 163 181 160 193 245 110 109 112 119 154 172 180 138 144 169 208 180 217 190 172 167 162 153 160 152 156 164 161 173 171 178 168 186 179 175 169 168 170 158 168 166 186 137 114 118 247 221 226 210 179 210 206 199 182 139 220 168 178 144 134 150 141 126 98 98 100
160 185 187 191 194 178 180 187 188 206 200 199 181 143 76 81 91 222 208 180 164 147 136 107 161 143 166 173 167 163 170 147 99 214 232 206 220 184 171 162 154 150 149 156 158 152 167 153 172 175 177 185 182 182 166 169 168 166 174 190 176 126 153 200 186 228 221 284 253 228 212 223 249 174 163 178 80 78 156 163 167 155 134 117 133
158 190 202 203 189 172 177 175 172 180 151 109 108 83 95 123 162 200 218 185 154 138 120 127 143 153 169 170 165 162 171 162 165 213 226 247 195 178 177 165 151 144 145 137 158 138 134 154 158 161 172 175 179 178 189 157 177 166 177 188 188 160 200 165 171 195 335 244 254 229 232 14 1 353 46 100 154 157 171 162 162 143 122 126 123
181 186 193 186 174 172 185 186 179 180 154 123 87 118 160 179 163 195 218 191 155 143 140 137 171 153 149 160 171 166 161 162 161 201 220 210 189 174 177 159 157 143 149 135 152 129 146 139 149 157 161 171 176 163 191 180 166 166 173 189 166 174 165 159 202 183 210 204 235 311 250 97 312 284 70 98 267 155 152 136 138 131 139 123 125
182 184 181 177 169 165 188 185 183 168 107 109 149 177 159 162 168 189 206 185 171 171 152 147 147 148 154 164 167 166 163 145 155 234 241 209 183 182 165 164 158 147 162 150 143 152 157 142 160 171 159 175 166 175 179 183 169 175 171 185 175 179 177 172 200 198 212 233 202 224 273 163 138 222 93 153 190 172 175 156 144 141 123 132 138
188 190 190 185 175 195 185 180 160 119 105 104 153 186 166 166 183 198 205 201 185 169 143 152 141 145 157 157 165 163 153 129 133 217 232 191 186 172 170 160 158 154 160 163 150 165 156 146 153 143 136 139 151 156 168 174 191 194 174 177 173 179 174 160 167 189 210 227 263 225 229 152 91 264 222 245 152 160 200 192 141 123 144 145 153
220 232 202 194 192 200 198 168 157 133 154 155 168 169 172 168 185 199 202 199 190 174 151 151 151 157 159 155 162 166 150 124 144 228 215 188 176 171 173 164 160 159 161 150 154 161 139 143 140 130 143 143 142 155 163 174 164 209 129 182 169 183 183 165 164 181 191 188 185 210 184 157 191 135 200 245 184 219 135 151 160 146 146 144 147
195 230 202 166 195 176 172 164 142 148 151 157 163 166 173 167 181 196 195 190 180 168 156 162 163 161 162 157 161 149 143 141 197 212 191 182 175 169 171 163 153 155 153 146 157 151 149 148 153 143 148 156 164 164 165 155 157 205 161 182 177 180 174 170 176 182 175 169 187 171 204 156 203 167 166 188 164 249 157 144 160 157 155 151 152
177 140 117 149 143 177 170 162 150 158 161 160 171 171 176 169 178 186 186 180 169 162 160 168 167 162 158 153 148 161 161 183 203 184 177 169 161 173 161 166 145 157 152 152 157 151 158 164 151 132 153 136 118 120 140 137 147 177 146 177 163 179 173 185 166 167 156 149 143 161 189 156 104 18 144 147 127 178 192 136 163 143 165 146 150
32 79 118 175 162 165 173 154 158 160 168 157 163 175 184 180 185 183 178 176 165 164 167 166 166 166 162 156 161 164 174 186 172 170 162 166 158 161 159 158 153 153 151 159 158 157 160 164 136 132 143 140 148 159 156 123 150 153 139 150 165 172 182 159 172 159 148 164 155 152 148 139 161 179 153 171 165 193 144 156 152 156 158 153 153
43 41 25 5 119 98 106 155 155 183 169 161 157 179 180 185 178 181 174 174 165 166 165 161 162 164 162 163 161 163 164 159 161 165 158 160 163 155 158 153 152 147 161 155 163 159 163 159 144 141 151 149 149 113 136 152 146 138 150 148 154 167 163 170 155 156 154 165 151 138 147 182 179 150 189 182 150 146 159 150 128 117 128 154 135
25 35 48 50 60 67 21 355 308 139 203 169 163 178 182 173 174 175 162 161 167 168 165 161 163 161 164 160 162 164 158 154 155 159 158 159 174 151 157 151 155 156 158 159 165 165 161 162 153 146 160 160 155 158 150 122 143 144 150 149 137 160 154 168 167 160 160 165 160 158 161 151 194 179 137 125 147 164 138 112 123 127 129 133 143
42 38 45 58 69 86 120 196 244 159 164 191 200 192 184 167 175 170 168 165 169 168 166 160 162 164 161 159 180 161 152 154 152 155 158 158 158 149 159 156 152 160 156 164 168 163 164 170 152 159 162 165 153 163 142 141 151 151 127 125 142 145 170 161 167 158 173 160 152 131 172 195 163 142 132 152 151 134 130 127 112 127 134 183 154
36 27 25 40 37 39 59 61 57 122 239 310 56 281 231 184 198 172 167 169 169 170 168 161 157 154 164 179 165 152 150 150 149 152 155 155 157 160 160 156 160 157 166 166 170 164 166 174 162 158 162 160 166 159 162 158 147 130 138 148 149 144 154 145 164 166 162 165 136 151 152 172 164 139 164 153 150 164 155 149 146 139 145 126 177
34 22 15 28 37 26 47 49 60 63 100 170 172 211 296 305 239 173 171 169 172 168 168 163 149 162 173 176 161 154 150 156 149 149 157 157 158 164 164 163 169 161 171 174 164 170 170 171 161 157 164 162 171 159 167 157 134 153 152 131 120 118 142 149 160 158 155 156 154 157 146 148 138 157 167 145 154 178 173 138 134 135 121 134 14
25 11 9 27 33 26 23 48 52 26 37 32 32 44 221 276 252 222 172 170 165 167 166 161 149 162 185 160 158 154 155 151 149 151 154 158 153 157 172 163 167 167 166 182 161 175 168 168 157 162 157 166 164 156 165 161 164 160 149 141 130 133 143 147 147 158 144 147 147 147 146 147 150 160 160 143 181 177 177 128 130 108 117 61 74
25 22 12 24 34 29 28 34 26 13 16 13 333 4 320 225 211 205 181 171 166 167 168 164 158 158 172 163 158 156 155 154 150 149 153 157 155 166 157 173 162 170 161 172 162 177 167 165 162 165 158 162 157 166 167 169 154 162 164 151 161 145 136 141 137 128 131 141 150 148 148 146 154 155 150 169 151 182 154 142 163 157 166 153 168
31 25 17 18 23 20 27 24 25 17 1 337 335 7 349 359 238 239 170 173 169 173 169 165 155 156 167 162 161 159 155 155 151 151 154 154 157 155 163 162 166 164 155 166 171 169 174 156 173 170 159 161 167 166 160 155 156 159 151 165 143 142 137 127 141 147 134 134 141 148 150 153 157 154 164 168 160 174 166 173 179 215 158 156 168
31 29 22 25 22 16 13 20 28 25 360 6 3 31 16 316 286 227 180 170 172 164 163 147 135 133 148 149 159 157 155 154 151 151 152 154 153 152 158 156 166 154 155 168 167 161 171 164 173 164 159 164 156 163 159 156 154 161 160 153 156 154 141 140 148 136 144 153 154 148 157 157 162 158 159 167 168 178 173 225 166 225 275 132 173
34 30 26 22 19 19 14 7 13 18 15 351 43 36 56 338 7 35 150 160 161 161 149 117 115 98 51 32 22 353 153 146 148 149 154 149 146 150 154 149 155 149 161 163 163 160 166 180 145 159 151 149 153 164 150 158 163 154 158 159 156 161 146 147 138 135 135 148 138 151 166 172 165 136 187 167 176 187 179 226 208 213 226 215 221
32 29 28 24 22 21 18 18 9 11 19 18 13 51 56 36 47 51 56 145 161 152 120 130 116 99 104 111 90 89 341 121 141 146 155 150 148 146 142 141 143 148 161 157 156 153 168 149 149 150 139 143 164 148 100 30 146 151 159 165 163 166 152 152 155 143 149 148 153 140 130 68 63 67 66 55 54 41 20 260 180 201 212 239 248
29 29 27 27 21 18 21 23 16 9 12 23 19 6 40 54 54 36 40 12 40 53 99 101 108 123 117 109 120 94 89 17 183 151 151 147 147 139 135 137 141 141 143 143 149 152 160 143 149 141 141 157 120 61 23 29 24 13 255 171 174 155 171 159 168 140 157 166 155 135 75 69 57 53 55 49 48 50 40 44 12 18 329 293 278
26 26 27 26 24 27 28 29 24 18 18 28 27 20 39 43 39 48 50 73 93 84 78 91 93 102 103 107 94 72 44 40 52 151 148 149 141 140 139 136 130 125 122 125 134 143 151 153 145 138 141 120 60 24 11 32 11 19 3 351 177 171 183 174 174 177 163 187 176 167 128 114 133 120 95 85 73 45 70 58 58 63 52 2 301
25 22 23 21 23 25 27 31 31 20 19 21 25 23 39 58 60 53 60 66 69 76 95 98 96 93 92 90 87 79 68 56 61 52 57 73 137 144 132 125 125 128 124 123 121 103 74 85 132 141 109 69 59 9 5 23 19 6 20 355 319 205 202 192 203 201 200 194 204 195 190 153 199 196 177 158 159 149 113 71 36 358 15 82 312
28 27 22 21 23 23 17 23 34 22 19 20 23 40 47 57 56 56 51 59 88 100 103 104 106 110 108 103 95 95 91 78 75 67 53 54 56 71 93 108 101 84 91 92 76 78 77 63 65 69 61 55 50 11 6 12 22 14 4 352 322 302 208 223 221 216 229 220 205 202 208 202 162 85 227 207 199 181 179 196 305 249 254 239 215
40 37 29 21 21 20 17 20 21 21 14 2 14 37 50 50 49 44 43 45 44 54 60 83 102 108 108 104 101 98 96 89 88 87 65 43 52 58 67 72 74 68 70 74 66 54 44 37 51 69 65 51 44 8 4 11 18 18 12 351 303 313 273 245 230 232 235 248 238 224 222 181 250 87 225 254 249 240 194 195 221 237 243 220 217
41 38 35 24 17 18 19 26 26 25 16 9 23 47 59 60 60 61 48 43 42 48 52 40 41 66 114 125 129 122 118 113 110 108 101 84 63 66 71 76 75 74 69 73 84 78 55 48 71 72 73 58 39 10 14 11 5 5 4 328 293 294 291 292 286 267 253 255 250 239 254 246 126 209 350 311 277 263 267 259 278 269 275 281 295
40 39 32 26 17 16 23 29 27 24 13 14 34 32 50 66 74 70 60 56 55 52 48 39 46 44 52 69 115 126 125 126 124 107 97 97 87 84 80 80 84 80 74 73 69 85 91 97 100 95 85 70 32 19 17 13 3 4 342 289 270 260 252 253 254 260 236 238 238 234 234 249 289 105 198 323 354 338 280 271 251 240 269 286 347
44 35 29 16 5 5 23 37 35 27 18 13 32 66 65 56 50 76 81 71 69 67 62 55 47 45 54 67 57 74 104 109 107 107 100 95 98 91 111 118 116 114 118 100 73 57 61 87 99 103 96 72 49 16 13 16 8 4 350 325 275 255 254 251 256 261 279 1 355 353 345 317 46 64 9 348 5 348 273 271 271 269 271 277 190
37 33 31 29 18 7 11 33 40 34 26 10 21 50 51 62 61 63 68 74 71 64 70 72 70 68 53 59 67 68 75 79 86 96 83 62 53 46 47 30 113 138 131 124 113 80 58 51 47 73 72 77 62 26 16 16 15 6 350 319 306 290 304 296 265 256 278 83 36 9 20 33 58 50 6 8 360 346 290 285 286 289 326 287 262
33 28 26 27 23 14 15 23 30 38 29 21 25 37 49 51 53 54 61 59 61 63 64 69 72 80 80 78 82 80 79 80 82 82 80 74 56 57 69 59 42 39 67 110 102 94 82 73 72 82 90 78 67 46 26 17 24 19 5 337 315 281 255 257 280 278 267 109 124 57 41 50 54 35 30 10 4 342 296 285 286 273 255 254 284
29 25 24 30 22 25 19 20 19 18 24 29 31 35 37 51 51 52 56 54 52 54 60 66 70 74 79 76 72 78 79 74 71 69 77 88 95 88 84 85 76 73 55 53 84 99 106 105 93 75 76 88 81 55 30 23 34 29 17 335 334 5 347 351 320 317 341 343 105 111 67 58 64 45 30 12 355 356 317 311 306 285 276 280 322
26 21 17 28 30 33 30 24 22 11 12 23 33 42 40 43 46 52 54 51 50 51 55 58 61 62 61 60 59 59 64 74 86 88 89 89 87 95 102 101 104 101 95 71 66 75 82 83 80 76 69 56 53 66 43 29 36 37 30 20 46 27 4 354 348 333 318 325 16 88 82 34 41 43 32 7 351 326 322 300 296 294 17 332 315
46 31 21 25 29 27 28 24 20 17 18 19 28 44 46 44 45 43 38 40 49 54 55 59 59 58 56 53 50 49 51 52 52 59 68 76 82 100 129 136 124 126 130 135 132 133 119 110 103 87 82 78 54 48 63 42 34 36 40 38 45 37 11 333 338 347 13 15 33 79 71 26 19 14 6 358 342 326 315 288 303 336 339 1 342
38 44 43 35 36 32 27 22 14 18 23 21 26 42 49 48 48 38 33 34 38 45 53 56 57 56 54 55 53 51 48 44 47 49 52 57 61 67 71 80 111 113 120 130 140 139 144 133 135 129 122 106 95 84 70 67 54 51 42 46 41 31 351 337 345 343 9 346 27 18 27 17 356 342 336 325 304 303 274 267 333 337 342 337 322
44 45 44 47 55 45 40 27 26 23 27 28 31 42 47 54 51 40 38 39 40 40 47 53 54 56 58 57 59 58 53 54 47 49 56 50 47 51 49 42 37 123 140 150 141 155 153 150 143 134 126 127 122 104 103 100 96 87 82 64 37 18 10 357 329 343 1 2 7 12 353 337 330 318 307 300 294 259 262 289 302 322 328 310 291
52 48 48 56 64 66 60 36 14 29 37 47 45 38 40 49 46 46 48 48 45 44 47 51 50 48 52 61 59 54 52 50 52 48 46 49 44 25 51 48 46 39 30 60 90 79 81 97 115 116 119 116 123 122 112 123 128 139 148 148 159 300 299 319 307 15 356 354 22 284 284 278 282 284 278 280 273 253 242 254 256 259 266 262 254
64 71 68 71 80 77 69 62 52 47 54 39 41 50 54 58 62 62 63 75 83 77 63 59 61 56 49 50 57 63 55 45 47 51 46 40 33 33 26 25 25 32 29 27 36 37 47 71 76 90 89 92 86 132 120 124 152 166 201 198 211 217 250 242 246 302 324 314 277 263 262 261 257 248 258 265 287 302 190 211 212 219 248 258 255
59 75 96 88 80 81 78 70 59 48 44 32 35 41 47 50 52 55 55 52 56 70 83 82 79 83 80 69 53 44 66 57 44 45 50 40 30 31 35 28 19 15 19 26 37 20 38 44 34 40 23 22 80 65 49 35 24 11 0 344 235 229 230 255 265 21 322 309 277 236 261 262 276 286 277 285 283 273 213 204 205 208 226 255 276
74 90 90 90 92 88 86 87 84 78 76 76 51 38 39 41 45 46 50 54 52 45 49 52 57 57 55 66 72 53 58 71 59 51 43 37 31 25 41 43 22 7 1 13 22 39 33 30 9 23 360 316 91 65 37 24 22 7 356 349 353 356 1 354 359 352 338 315 305 274 247 245 237 240 246 254 255 248 279 317 324 322 313 308 289
91 81 81 87 88 90 105 116 118 130 128 106 73 59 51 48 43 41 43 49 55 60 56 53 50 54 56 50 55 55 51 56 79 78 62 45 32 25 33 57 47 29 24 8 1 27 19 9 4 23 7 10 34 48 41 23 29 17 345 338 346 351 347 334 24 2 308 290 284 278 310 311 309 326 326 331 337 342 345 334 324 318 328 323 317
80 75 68 60 59 70 61 60 58 52 52 59 59 51 44 42 42 39 39 42 45 49 59 56 47 40 40 49 49 51 48 51 46 82 109 85 44 33 31 44 56 69 60 39 32 38 11 354 359 45 44 26 31 34 17 21 7 348 333 309 299 297 292 287 300 305 293 296 297 291 283 322 340 316 317 331 343 344 329 330 329 329 313 316 355
108 104 89 79 75 69 76 73 69 58 53 46 47 46 45 37 35 39 35 36 39 46 45 50 53 51 19 26 55 46 50 47 49 34 67 125 116 72 48 52 64 61 47 46 36 32 40 38 20 31 73 78 70 38 16 359 347 343 338 337 330 323 305 294 305 326 270 237 256 280 344 341 316 339 348 341 341 337 343 336 328 335 329 343 17